QPF
0.00 0.00 0.00 0.00 0.00 0.00 0.00 0.00 0.00 0.00 0.00 0.00 0.00 0.00 0.00 0.00 0.00 0.00 0.00 0.00 0.00 0.00 0.00 0.00 0.00 0.00 0.00 0.00 0.00 0.00 0.00 0.00 0.01 0.00 0.00 0.00 0.00 0.00 0.00 0.00 0.00 0.00 0.00
0.00 0.00 0.00 0.00 0.00 0.00 0.00 0.00 0.00 0.00 0.00 0.00 0.00 0.00 0.00 0.00 0.00 0.00 0.00 0.00 0.00 0.00 0.00 0.00 0.00 0.00 0.00 0.00 0.00 0.00 0.00 0.00 0.00 0.00 0.02 0.01 0.01 0.02 0.01 0.00 0.00 0.00 0.00
0.00 0.00 0.00 0.00 0.00 0.00 0.00 0.00 0.00 0.00 0.00 0.00 0.00 0.00 0.00 0.00 0.00 0.00 0.00 0.00 0.00 0.00 0.00 0.00 0.00 0.00 0.01 0.00 0.00 0.00 0.00 0.00 0.00 0.00 0.01 0.01 0.01 0.09 0.07 0.02 0.01 0.01 0.01
0.00 0.00 0.00 0.00 0.00 0.00 0.00 0.00 0.00 0.00 0.00 0.00 0.00 0.00 0.00 0.00 0.00 0.00 0.00 0.00 0.00 0.00 0.00 0.00 0.00 0.00 0.00 0.00 0.00 0.00 0.00 0.00 0.00 0.00 0.00 0.00 0.01 0.13 0.17 0.11 0.01 0.00 0.00
0.00 0.00 0.00 0.00 0.00 0.00 0.00 0.00 0.00 0.00 0.00 0.00 0.00 0.00 0.00 0.00 0.00 0.00 0.00 0.00 0.00 0.00 0.00 0.00 0.00 0.00 0.00 0.00 0.00 0.00 0.00 0.00 0.00 0.00 0.02 0.00 0.01 0.07 0.14 0.12 0.04 0.01 0.00
0.00 0.00 0.00 0.00 0.00 0.00 0.00 0.00 0.00 0.00 0.00 0.00 0.00 0.00 0.00 0.00 0.00 0.00 0.00 0.00 0.00 0.00 0.00 0.00 0.00 0.00 0.00 0.00 0.00 0.00 0.00 0.00 0.00 0.00 0.00 0.00 0.00 0.03 0.04 0.11 0.08 0.01 0.00
0.00 0.00 0.00 0.00 0.00 0.00 0.00 0.00 0.00 0.00 0.00 0.00 0.00 0.00 0.00 0.00 0.00 0.00 0.00 0.00 0.00 0.00 0.00 0.00 0.00 0.00 0.00 0.00 0.00 0.00 0.00 0.00 0.00 0.00 0.00 0.02 0.09 0.04 0.03 0.05 0.04 0.02 0.02
0.00 0.00 0.00 0.00 0.00 0.00 0.00 0.00 0.00 0.00 0.00 0.00 0.00 0.00 0.00 0.00 0.00 0.00 0.00 0.00 0.00 0.00 0.00 0.04 0.03 0.01 0.00 0.00 0.00 0.00 0.00 0.00 0.00 0.00 0.00 0.01 0.05 0.03 0.07 0.02 0.04 0.05 0.06
0.00 0.00 0.00 0.00 0.00 0.00 0.00 0.00 0.00 0.00 0.00 0.00 0.00 0.00 0.00 0.00 0.00 0.00 0.01 0.00 0.00 0.00 0.00 0.02 0.06 0.05 0.02 0.02 0.00 0.00 0.00 0.00 0.00 0.00 0.00 0.00 0.01 0.01 0.02 0.03 0.06 0.06 0.04
0.00 0.00 0.00 0.00 0.00 0.00 0.00 0.00 0.00 0.00 0.00 0.00 0.00 0.00 0.00 0.00 0.00 0.00 0.02 0.03 0.03 0.02 0.04 0.08 0.12 0.07 0.09 0.12 0.11 0.05 0.02 0.00 0.00 0.00 0.00 0.00 0.00 0.00 0.04 0.04 0.02 0.02 0.04
0.00 0.00 0.00 0.00 0.00 0.00 0.00 0.00 0.00 0.00 0.00 0.00 0.00 0.00 0.00 0.00 0.00 0.00 0.00 0.00 0.00 0.00 0.02 0.09 0.09 0.06 0.18 0.23 0.22 0.18 0.11 0.07 0.01 0.00 0.00 0.00 0.00 0.01 0.12 0.09 0.05 0.04 0.04
0.00 0.00 0.00 0.00 0.00 0.00 0.00 0.00 0.00 0.00 0.00 0.00 0.00 0.00 0.01 0.00 0.00 0.01 0.00 0.00 0.00 0.00 0.04 0.10 0.07 0.10 0.14 0.05 0.20 0.23 0.18 0.13 0.02 0.00 0.00 0.00 0.00 0.01 0.08 0.08 0.06 0.04 0.01
0.00 0.00 0.00 0.00 0.00 0.00 0.00 0.00 0.00 0.00 0.00 0.00 0.00 0.00 0.00 0.00 0.00 0.00 0.00 0.00 0.00 0.01 0.01 0.05 0.16 0.16 0.20 0.17 0.23 0.19 0.10 0.03 0.01 0.00 0.00 0.00 0.00 0.01 0.07 0.07 0.04 0.06 0.05
0.00 0.00 0.00 0.00 0.00 0.00 0.00 0.00 0.00 0.00 0.00 0.00 0.00 0.00 0.00 0.00 0.00 0.00 0.00 0.00 0.00 0.00 0.00 0.00 0.01 0.06 0.16 0.14 0.28 0.28 0.22 0.25 0.28 0.15 0.02 0.00 0.00 0.00 0.03 0.05 0.08 0.07 0.06
0.00 0.00 0.00 0.00 0.00 0.00 0.00 0.00 0.00 0.00 0.00 0.00 0.00 0.00 0.00 0.00 0.00 0.00 0.00 0.00 0.00 0.00 0.00 0.00 0.00 0.00 0.01 0.04 0.09 0.11 0.20 0.39 0.35 0.22 0.05 0.00 0.00 0.00 0.02 0.04 0.06 0.06 0.06
0.00 0.00 0.00 0.00 0.00 0.00 0.00 0.00 0.00 0.00 0.00 0.00 0.00 0.00 0.00 0.00 0.00 0.00 0.00 0.00 0.00 0.00 0.00 0.00 0.00 0.00 0.00 0.00 0.00 0.00 0.00 0.01 0.00 0.01 0.00 0.00 0.00 0.00 0.02 0.05 0.07 0.07 0.05
0.00 0.00 0.00 0.00 0.00 0.00 0.00 0.00 0.00 0.00 0.00 0.00 0.00 0.00 0.00 0.00 0.00 0.00 0.00 0.00 0.00 0.00 0.00 0.00 0.00 0.00 0.00 0.00 0.00 0.00 0.00 0.00 0.00 0.00 0.00 0.00 0.01 0.01 0.01 0.05 0.09 0.10 0.10
0.00 0.00 0.00 0.00 0.00 0.00 0.00 0.00 0.00 0.00 0.00 0.00 0.00 0.00 0.00 0.00 0.00 0.00 0.00 0.00 0.00 0.00 0.00 0.00 0.00 0.00 0.00 0.00 0.00 0.00 0.00 0.00 0.00 0.00 0.00 0.00 0.01 0.01 0.02 0.10 0.15 0.19 0.18
0.00 0.00 0.00 0.00 0.00 0.00 0.00 0.00 0.00 0.00 0.00 0.00 0.00 0.00 0.00 0.00 0.00 0.00 0.00 0.00 0.00 0.00 0.00 0.00 0.00 0.00 0.00 0.00 0.00 0.00 0.00 0.00 0.00 0.00 0.00 0.00 0.00 0.00 0.02 0.03 0.06 0.15 0.24
0.00 0.00 0.00 0.00 0.00 0.00 0.00 0.00 0.00 0.00 0.00 0.00 0.00 0.00 0.00 0.00 0.00 0.00 0.00 0.00 0.00 0.00 0.00 0.00 0.00 0.00 0.00 0.00 0.00 0.00 0.00 0.00 0.00 0.00 0.00 0.00 0.00 0.00 0.01 0.06 0.11 0.15 0.18
0.00 0.00 0.00 0.00 0.00 0.00 0.00 0.00 0.00 0.00 0.00 0.00 0.00 0.00 0.00 0.00 0.00 0.00 0.00 0.00 0.00 0.00 0.00 0.00 0.00 0.00 0.00 0.00 0.00 0.00 0.00 0.00 0.00 0.00 0.00 0.00 0.00 0.01 0.04 0.11 0.14 0.18 0.20
0.00 0.00 0.00 0.00 0.00 0.00 0.00 0.00 0.00 0.00 0.00 0.00 0.00 0.00 0.00 0.00 0.00 0.00 0.00 0.00 0.00 0.00 0.00 0.00 0.00 0.00 0.00 0.00 0.00 0.00 0.00 0.00 0.00 0.00 0.00 0.00 0.00 0.01 0.02 0.06 0.13 0.16 0.16
0.00 0.00 0.00 0.00 0.00 0.00 0.00 0.00 0.00 0.00 0.00 0.00 0.00 0.00 0.00 0.00 0.00 0.00 0.00 0.00 0.00 0.00 0.00 0.00 0.00 0.00 0.00 0.00 0.00 0.00 0.00 0.00 0.00 0.00 0.00 0.00 0.00 0.00 0.00 0.00 0.00 0.01 0.02
0.00 0.00 0.00 0.00 0.00 0.00 0.00 0.00 0.00 0.00 0.00 0.00 0.00 0.00 0.00 0.00 0.00 0.00 0.00 0.00 0.00 0.00 0.00 0.00 0.00 0.00 0.00 0.00 0.00 0.00 0.00 0.00 0.00 0.00 0.00 0.00 0.00 0.00 0.00 0.00 0.00 0.00 0.00
0.00 0.00 0.00 0.00 0.00 0.00 0.00 0.00 0.00 0.00 0.00 0.00 0.00 0.00 0.00 0.00 0.00 0.00 0.00 0.00 0.00 0.00 0.00 0.00 0.00 0.00 0.00 0.00 0.00 0.00 0.00 0.00 0.00 0.00 0.00 0.00 0.00 0.00 0.00 0.00 0.00 0.00 0.00
0.00 0.00 0.00 0.00 0.00 0.00 0.00 0.00 0.00 0.00 0.00 0.00 0.00 0.00 0.00 0.00 0.00 0.00 0.00 0.00 0.00 0.00 0.00 0.00 0.00 0.00 0.00 0.00 0.00 0.00 0.00 0.00 0.00 0.00 0.00 0.00 0.00 0.00 0.00 0.00 0.00 0.00 0.00
MSLP
1010.93 1010.97 1011.13 1011.27 1011.31 1011.23 1011.24 1011.09 1011.13 1011.27 1011.28 1011.45 1011.66 1011.85 1011.96 1012.22 1012.64 1013.07 1013.28 1013.46 1013.54 1013.60 1013.73 1013.88 1013.98 1014.14 1014.33 1014.56 1014.59 1014.71 1014.80 1014.79 1014.81 1014.76 1014.83 1014.88 1014.87 1015.01 1015.07 1015.23 1015.46 1015.52 1015.63
1010.74 1010.97 1011.24 1011.50 1011.53 1011.55 1011.65 1011.58 1011.67 1011.75 1011.75 1011.84 1012.06 1012.21 1012.38 1012.52 1012.80 1013.14 1013.52 1013.71 1013.89 1013.90 1013.94 1014.04 1014.20 1014.37 1014.54 1014.62 1014.62 1014.86 1014.92 1015.02 1015.03 1015.01 1015.02 1015.14 1015.32 1015.28 1015.39 1015.50 1015.68 1015.75 1015.83
1010.95 1011.25 1011.43 1011.61 1011.74 1011.73 1011.96 1012.05 1012.03 1012.09 1012.21 1012.29 1012.37 1012.46 1012.58 1012.76 1012.95 1013.24 1013.53 1013.78 1013.97 1014.13 1014.14 1014.18 1014.23 1014.42 1014.68 1014.78 1014.89 1014.98 1015.08 1015.14 1015.13 1015.16 1015.15 1015.34 1015.56 1015.54 1015.54 1015.78 1015.90 1016.03 1016.18
1011.12 1011.30 1011.25 1011.63 1011.81 1011.92 1012.05 1012.24 1012.38 1012.49 1012.46 1012.47 1012.55 1012.70 1012.78 1012.94 1013.13 1013.26 1013.50 1013.74 1013.90 1014.13 1014.25 1014.28 1014.30 1014.45 1014.68 1014.78 1014.87 1015.01 1015.21 1015.32 1015.28 1015.41 1015.53 1015.48 1015.45 1015.63 1015.63 1015.89 1016.11 1016.18 1016.40
1011.33 1011.58 1011.69 1011.67 1011.86 1011.99 1012.21 1012.44 1012.46 1012.56 1012.69 1012.75 1012.79 1012.81 1012.97 1013.19 1013.33 1013.47 1013.60 1013.72 1013.83 1013.95 1014.18 1014.32 1014.38 1014.41 1014.50 1014.63 1014.78 1014.95 1015.22 1015.30 1015.25 1015.44 1015.69 1015.80 1015.75 1015.53 1015.56 1015.72 1016.16 1016.30 1016.45
1012.06 1012.18 1012.19 1011.91 1012.21 1012.20 1012.43 1012.31 1012.38 1012.59 1012.63 1012.68 1012.80 1012.99 1013.14 1013.29 1013.41 1013.63 1013.73 1013.78 1013.90 1013.94 1014.05 1014.23 1014.33 1014.57 1014.64 1014.65 1014.79 1014.89 1015.04 1015.37 1015.42 1015.57 1015.75 1015.84 1015.81 1015.79 1015.58 1015.69 1015.81 1016.17 1016.39
1012.78 1012.70 1012.72 1012.78 1012.71 1012.59 1012.62 1012.59 1012.60 1012.52 1012.60 1012.75 1012.86 1013.03 1013.15 1013.29 1013.39 1013.50 1013.68 1013.73 1013.70 1013.80 1013.95 1014.17 1014.36 1014.49 1014.68 1014.80 1014.78 1014.74 1014.98 1015.33 1015.53 1015.59 1015.61 1015.67 1015.67 1015.41 1015.47 1015.62 1015.69 1015.85 1016.06
1013.14 1013.25 1013.14 1013.00 1012.97 1012.97 1012.98 1012.95 1012.91 1012.86 1012.87 1012.85 1012.92 1013.06 1013.19 1013.24 1013.31 1013.45 1013.57 1013.70 1013.75 1013.77 1013.94 1013.95 1014.19 1014.30 1014.49 1014.63 1014.84 1014.88 1014.94 1015.26 1015.47 1015.66 1015.50 1015.43 1015.40 1015.45 1015.40 1015.66 1015.76 1015.92 1016.09
1013.73 1013.64 1013.68 1013.69 1013.58 1013.38 1013.18 1013.21 1013.30 1013.41 1013.42 1013.36 1013.30 1013.24 1013.25 1013.30 1013.32 1013.40 1013.45 1013.52 1013.57 1013.64 1013.69 1013.77 1013.79 1013.88 1014.14 1014.28 1014.41 1014.80 1014.82 1015.06 1015.26 1015.44 1015.34 1015.14 1015.12 1015.10 1015.11 1015.28 1015.56 1015.88 1016.04
1014.42 1014.48 1014.52 1014.31 1014.08 1013.76 1013.66 1013.60 1013.62 1013.64 1013.73 1013.78 1013.77 1013.71 1013.61 1013.59 1013.64 1013.68 1013.78 1013.81 1013.79 1013.62 1013.67 1013.58 1013.37 1013.50 1013.65 1013.95 1014.13 1014.51 1014.69 1014.85 1015.08 1015.21 1015.19 1015.16 1015.01 1015.10 1015.05 1014.92 1015.20 1015.46 1015.83
1015.18 1015.27 1015.18 1015.02 1014.71 1014.39 1014.15 1014.13 1014.01 1014.20 1014.29 1014.32 1014.26 1014.13 1013.80 1013.77 1013.80 1013.75 1014.04 1014.05 1013.98 1013.94 1013.83 1013.66 1013.56 1013.37 1013.33 1013.53 1013.76 1013.92 1014.37 1014.63 1014.81 1014.99 1015.06 1014.92 1014.94 1014.91 1014.74 1014.72 1014.91 1015.13 1015.47
1015.93 1015.91 1015.86 1015.67 1015.52 1015.08 1014.83 1014.81 1014.77 1014.91 1015.01 1015.12 1015.08 1014.83 1014.70 1014.60 1014.37 1014.21 1014.19 1013.98 1014.01 1014.00 1013.80 1013.56 1013.44 1013.28 1013.43 1013.35 1013.43 1013.59 1013.94 1014.11 1014.33 1014.48 1014.49 1014.53 1014.49 1014.38 1014.33 1014.40 1014.61 1014.66 1015.05
1016.58 1016.27 1015.98 1015.86 1015.77 1015.59 1015.53 1015.41 1015.53 1015.88 1015.91 1015.70 1015.55 1015.54 1015.56 1015.31 1015.04 1014.86 1014.58 1014.31 1014.20 1014.19 1014.00 1013.76 1013.62 1013.34 1013.31 1013.29 1013.02 1013.12 1013.77 1014.31 1014.16 1013.90 1013.83 1013.93 1013.92 1013.93 1013.74 1013.76 1013.88 1014.27 1014.58
1016.67 1016.75 1016.37 1016.02 1015.79 1015.79 1015.82 1015.90 1016.05 1016.32 1016.49 1016.45 1016.48 1016.32 1016.17 1015.97 1015.78 1015.52 1015.14 1015.06 1014.82 1014.66 1014.30 1013.98 1013.92 1013.62 1013.36 1012.91 1012.73 1013.18 1013.69 1013.91 1014.07 1013.63 1013.02 1012.27 1012.49 1012.67 1012.81 1012.93 1013.13 1013.47 1013.88
1016.87 1017.05 1016.79 1016.49 1016.41 1016.22 1016.07 1016.43 1016.70 1016.89 1017.10 1016.96 1017.09 1017.04 1016.72 1016.81 1016.60 1016.29 1016.09 1015.71 1015.55 1015.33 1014.98 1014.39 1014.43 1013.93 1013.53 1013.27 1013.09 1013.19 1013.16 1012.72 1012.16 1011.79 1011.44 1010.90 1011.11 1011.40 1012.35 1012.04 1012.21 1012.60 1013.27
1017.12 1017.15 1016.90 1016.59 1016.41 1016.21 1016.61 1016.76 1017.19 1017.45 1017.64 1017.67 1017.75 1017.60 1017.51 1017.37 1017.25 1017.11 1016.84 1016.49 1016.14 1015.90 1015.58 1015.00 1014.96 1014.52 1013.93 1013.64 1013.50 1013.33 1013.14 1012.67 1012.75 1012.05 1011.58 1011.76 1011.40 1011.57 1011.69 1011.45 1010.95 1011.48 1012.34
1017.27 1017.17 1017.08 1016.98 1016.68 1016.69 1017.04 1017.16 1017.47 1017.71 1017.97 1018.22 1018.25 1018.19 1018.07 1017.98 1017.93 1017.82 1017.78 1017.51 1017.17 1016.55 1016.03 1015.50 1015.21 1014.61 1014.14 1013.90 1013.70 1013.48 1013.07 1012.80 1012.33 1012.08 1012.10 1011.70 1011.44 1011.41 1011.60 1011.28 1010.70 1010.73 1011.56
1017.49 1017.74 1017.74 1017.79 1017.53 1017.36 1017.45 1017.71 1018.00 1018.30 1018.53 1018.81 1018.94 1019.02 1018.80 1018.68 1018.63 1018.56 1018.47 1018.37 1017.82 1017.26 1016.96 1016.65 1016.11 1015.38 1014.90 1014.50 1014.03 1013.30 1012.69 1012.34 1011.97 1011.80 1011.45 1011.24 1011.16 1011.11 1011.16 1011.16 1010.96 1010.58 1011.17
1017.61 1017.90 1018.12 1018.25 1018.30 1018.19 1018.19 1018.43 1018.73 1018.97 1019.10 1019.40 1019.40 1019.55 1019.53 1019.33 1019.17 1019.12 1019.11 1018.95 1018.38 1017.90 1017.56 1017.30 1016.85 1016.46 1015.71 1015.13 1014.40 1013.34 1012.47 1011.82 1011.68 1011.37 1011.02 1010.67 1010.57 1010.61 1010.63 1010.60 1010.39 1010.51 1011.00
1018.14 1018.35 1018.32 1018.52 1018.78 1018.67 1018.44 1018.83 1019.31 1019.51 1019.73 1020.01 1020.16 1020.27 1020.10 1019.94 1019.74 1019.43 1019.32 1019.24 1018.94 1018.65 1018.30 1017.94 1017.53 1016.95 1016.44 1015.98 1014.62 1013.31 1012.30 1011.49 1011.04 1010.88 1010.67 1010.28 1010.13 1009.92 1010.00 1010.17 1010.25 1010.43 1010.71
1018.74 1019.02 1019.29 1019.19 1019.32 1019.40 1019.32 1019.28 1019.77 1020.66 1020.82 1020.88 1020.99 1021.09 1020.89 1020.74 1020.43 1020.23 1019.98 1019.62 1019.21 1019.03 1018.88 1018.43 1018.02 1017.55 1016.91 1016.43 1015.19 1013.66 1012.24 1011.27 1010.81 1010.52 1010.42 1010.24 1010.02 1009.79 1009.87 1009.95 1009.94 1010.10 1010.34
1019.44 1019.69 1019.92 1020.23 1020.15 1020.04 1020.05 1020.05 1020.37 1021.22 1021.77 1021.87 1021.72 1021.60 1021.65 1021.44 1021.01 1020.72 1020.69 1020.40 1019.92 1019.49 1019.10 1018.76 1018.43 1018.24 1017.83 1017.50 1017.21 1016.15 1014.25 1012.14 1011.39 1010.97 1010.62 1010.46 1010.29 1010.33 1010.46 1010.39 1010.20 1010.16 1010.14
1020.11 1020.37 1020.60 1021.04 1020.91 1020.74 1020.55 1020.53 1020.73 1021.35 1021.98 1022.34 1022.61 1022.44 1022.29 1022.26 1022.01 1021.54 1021.17 1020.90 1020.63 1020.10 1019.85 1019.40 1019.17 1018.86 1018.59 1018.26 1017.91 1017.44 1016.47 1015.32 1014.31 1011.80 1011.44 1011.25 1011.39 1011.43 1011.55 1011.51 1011.35 1010.95 1010.62
1020.51 1020.56 1020.99 1021.51 1021.59 1021.72 1021.37 1021.50 1021.48 1022.25 1022.98 1023.62 1023.56 1023.43 1023.08 1022.79 1022.57 1022.32 1022.04 1021.58 1021.23 1020.74 1020.67 1020.17 1019.74 1019.44 1019.08 1018.79 1018.31 1017.98 1018.06 1017.72 1016.59 1014.53 1012.52 1012.12 1012.24 1012.39 1012.41 1012.18 1012.10 1011.91 1011.55
1020.63 1021.05 1021.25 1021.60 1022.14 1022.10 1022.10 1022.31 1022.26 1023.15 1023.45 1023.81 1023.92 1023.98 1023.66 1023.62 1023.37 1023.02 1022.62 1022.45 1022.08 1021.69 1021.29 1020.86 1020.31 1020.11 1019.73 1019.48 1019.31 1018.89 1018.46 1018.05 1017.53 1017.04 1014.60 1013.09 1012.82 1012.98 1013.21 1013.12 1012.75 1012.22 1011.78
1021.06 1021.43 1021.57 1021.96 1022.46 1022.77 1023.14 1023.22 1022.99 1023.63 1024.06 1024.36 1024.46 1024.47 1024.11 1024.21 1024.02 1023.77 1023.52 1022.95 1022.83 1022.49 1022.17 1021.45 1020.89 1020.84 1020.44 1020.03 1020.00 1019.64 1019.45 1019.16 1018.61 1018.16 1016.85 1015.28 1014.75 1013.70 1013.47 1013.24 1013.05 1012.73 1012.26
Thickness
5768 5769 5767 5765 5765 5765 5765 5765 5764 5761 5760 5758 5755 5752 5751 5748 5743 5737 5735 5732 5731 5730 5729 5727 5725 5723 5720 5717 5715 5713 5713 5713 5712 5711 5710 5709 5707 5705 5705 5703 5700 5699 5696
5770 5767 5764 5760 5759 5760 5759 5759 5757 5755 5754 5753 5749 5746 5744 5742 5739 5735 5730 5728 5725 5725 5724 5723 5720 5718 5715 5714 5714 5710 5710 5708 5706 5706 5707 5705 5702 5701 5700 5699 5696 5695 5693
5767 5763 5759 5757 5756 5757 5754 5753 5752 5750 5748 5746 5745 5743 5741 5738 5735 5731 5728 5725 5722 5719 5719 5718 5717 5714 5711 5711 5709 5708 5706 5704 5703 5702 5703 5702 5698 5696 5697 5695 5693 5691 5688
5763 5761 5759 5756 5754 5753 5751 5749 5746 5744 5744 5744 5742 5739 5737 5734 5731 5728 5725 5722 5720 5716 5714 5714 5713 5711 5708 5707 5706 5704 5703 5701 5700 5699 5698 5699 5697 5693 5693 5691 5689 5687 5684
5758 5755 5754 5753 5751 5750 5747 5744 5744 5742 5740 5738 5737 5735 5733 5730 5727 5724 5721 5720 5718 5716 5712 5710 5709 5709 5707 5706 5705 5702 5700 5699 5697 5696 5694 5693 5693 5692 5691 5688 5685 5684 5683
5747 5745 5745 5747 5745 5745 5743 5744 5743 5739 5738 5736 5733 5731 5728 5726 5723 5720 5718 5716 5714 5713 5711 5709 5707 5704 5703 5702 5701 5700 5697 5694 5691 5690 5689 5688 5689 5688 5688 5686 5687 5683 5682
5738 5738 5738 5738 5738 5738 5737 5736 5736 5736 5734 5732 5730 5727 5725 5722 5720 5718 5715 5714 5713 5711 5709 5706 5703 5701 5699 5697 5697 5699 5695 5691 5687 5685 5686 5685 5687 5689 5686 5685 5685 5684 5683
5731 5730 5731 5732 5731 5730 5730 5729 5729 5729 5728 5727 5726 5723 5720 5719 5717 5715 5713 5710 5709 5708 5706 5705 5701 5699 5697 5694 5691 5692 5691 5687 5684 5683 5682 5683 5684 5685 5684 5681 5681 5679 5678
5722 5722 5722 5722 5721 5722 5723 5722 5722 5720 5719 5720 5720 5718 5717 5715 5714 5711 5708 5706 5705 5705 5704 5702 5701 5699 5695 5692 5690 5686 5686 5685 5682 5681 5680 5683 5683 5683 5683 5682 5678 5675 5674
5713 5712 5711 5712 5713 5715 5715 5715 5714 5713 5713 5712 5711 5710 5710 5709 5708 5706 5702 5700 5699 5699 5698 5698 5699 5698 5695 5690 5687 5682 5680 5679 5678 5678 5677 5678 5679 5677 5677 5679 5677 5676 5673
5703 5701 5701 5702 5704 5706 5706 5705 5704 5703 5702 5702 5702 5703 5704 5703 5701 5701 5698 5696 5694 5693 5692 5693 5693 5693 5691 5688 5683 5680 5674 5672 5673 5674 5675 5676 5676 5674 5674 5674 5674 5673 5671
5694 5693 5691 5692 5691 5694 5694 5694 5693 5692 5691 5690 5690 5691 5692 5692 5692 5692 5691 5691 5690 5689 5688 5687 5687 5687 5684 5683 5679 5676 5672 5670 5669 5670 5673 5673 5672 5674 5674 5675 5671 5672 5668
5686 5688 5689 5689 5687 5686 5685 5684 5681 5678 5677 5679 5681 5680 5679 5680 5680 5680 5681 5681 5682 5681 5681 5680 5679 5680 5678 5676 5676 5670 5667 5662 5665 5667 5667 5667 5670 5669 5672 5675 5674 5668 5666
5677 5676 5680 5682 5683 5681 5679 5677 5674 5669 5667 5665 5663 5664 5664 5665 5665 5666 5667 5666 5667 5668 5668 5671 5669 5669 5669 5672 5670 5667 5660 5660 5652 5660 5667 5676 5674 5676 5674 5674 5674 5670 5665
5667 5665 5666 5669 5670 5670 5670 5665 5660 5657 5653 5652 5651 5648 5649 5646 5648 5650 5651 5652 5650 5650 5652 5656 5655 5657 5658 5659 5657 5657 5657 5656 5658 5668 5678 5682 5684 5678 5669 5671 5674 5671 5664
5663 5660 5660 5661 5662 5661 5656 5653 5647 5643 5640 5637 5634 5634 5633 5631 5631 5631 5632 5635 5638 5637 5637 5640 5640 5643 5646 5647 5647 5644 5647 5650 5650 5659 5668 5665 5672 5670 5668 5668 5677 5673 5663
5656 5655 5652 5651 5652 5650 5645 5641 5636 5632 5627 5623 5621 5619 5618 5617 5616 5615 5615 5617 5619 5623 5625 5628 5627 5631 5634 5635 5636 5637 5637 5638 5643 5649 5651 5660 5664 5665 5662 5665 5670 5672 5664
5646 5642 5638 5637 5638 5638 5635 5629 5623 5618 5613 5609 5606 5603 5603 5602 5600 5599 5599 5598 5602 5606 5609 5610 5612 5616 5617 5619 5623 5630 5633 5636 5639 5643 5649 5654 5656 5659 5658 5659 5661 5664 5661
5638 5632 5627 5623 5622 5621 5619 5615 5609 5604 5600 5595 5592 5588 5586 5586 5586 5584 5583 5583 5587 5590 5592 5594 5597 5599 5602 5604 5609 5618 5626 5630 5632 5637 5643 5648 5650 5653 5653 5654 5658 5657 5653
5624 5620 5616 5611 5608 5608 5606 5598 5592 5589 5584 5579 5575 5572 5571 5570 5570 5570 5570 5568 5569 5571 5575 5577 5578 5582 5587 5588 5597 5607 5616 5624 5628 5630 5635 5640 5643 5647 5648 5647 5649 5650 5648
5607 5601 5596 5593 5589 5587 5586 5584 5575 5565 5562 5559 5554 5552 5551 5550 5550 5550 5551 5553 5554 5555 5555 5559 5561 5564 5568 5572 5581 5592 5602 5611 5618 5622 5626 5630 5635 5637 5638 5638 5640 5641 5642
5590 5585 5579 5574 5571 5570 5566 5563 5557 5548 5541 5538 5537 5534 5531 5531 5533 5532 5531 5532 5535 5537 5539 5541 5543 5544 5547 5549 5550 5558 5582 5593 5597 5603 5608 5614 5618 5620 5621 5622 5625 5627 5631
5574 5569 5564 5556 5553 5552 5551 5547 5542 5534 5526 5521 5517 5514 5512 5510 5510 5512 5514 5515 5516 5519 5519 5521 5521 5524 5526 5526 5530 5534 5545 5559 5557 5579 5585 5591 5594 5595 5597 5599 5602 5607 5612
5560 5557 5549 5541 5536 5531 5530 5526 5523 5514 5507 5500 5498 5495 5493 5493 5493 5493 5493 5496 5497 5500 5499 5502 5504 5505 5507 5507 5509 5514 5513 5516 5527 5543 5560 5566 5567 5572 5573 5576 5582 5584 5589
5547 5540 5535 5529 5520 5517 5514 5510 5508 5498 5492 5488 5484 5480 5480 5476 5476 5476 5477 5477 5479 5480 5482 5484 5487 5486 5489 5490 5488 5491 5493 5497 5502 5508 5533 5543 5547 5546 5548 5553 5557 5564 5569
5530 5525 5520 5514 5507 5504 5498 5494 5492 5483 5477 5473 5469 5467 5468 5463 5461 5460 5459 5463 5462 5463 5463 5466 5470 5469 5469 5471 5469 5471 5471 5471 5477 5482 5494 5509 5512 5523 5527 5532 5537 5540 5547